Regional Weather Roundup
Issued by NWS Kansas City/Pleasant Hill, MO

Home | Current Version | Previous Version | Graphics & Text | Print | Product List | Glossary Off
Versions: 1 2 3 4 5 6 7 8 9 10 11 12 13 14 15 16 17 18 19 20 21 22 23 24 25 26 27

000
ASUS43 KEAX 191710
RWREAX

WEATHER ROUNDUP FOR EASTERN KANSAS AND NORTHWEST MISSOURI
NATIONAL WEATHER SERVICE KANSAS CITY/PLEASANT HILL MO
1100 AM CST SUN NOV 19 2017

KSZ040-057-103>105-MOZ028-029-037-043-191800-
...KANSAS CITY METROPOLITAN AREA...

CITY           SKY/WX    TMP DP  RH WIND       PRES   REMARKS
K.C. INTL      SUNNY     42  22  44 VRB6      30.27F
K.C. DOWNTOWN  SUNNY     42  21  43 VRB3      30.29F
LEES SUMMIT    SUNNY     41  21  44 SW5       30.29F
OLATHE - IXD   SUNNY     42  21  43 CALM      30.29F
OLATHE - OJC   SUNNY     40  22  48 S5        30.29F
LAWRENCE       SUNNY     43  27  53 SE5       30.29F

$$

MOZ001>008-011>017-020>025-030>033-038>040-044>046-053-054-191800-
...NORTHERN AND CENTRAL MISSOURI...

CITY           SKY/WX    TMP DP  RH WIND       PRES   REMARKS
ST. JOSEPH     SUNNY     41  22  46 S7        30.27F
MOSBY          SUNNY     41  19  42 CALM      30.29S
WARRENSBURG    SUNNY     39  21  48 CALM      30.30F
WHITEMAN AFB   SUNNY     39  18  41 CALM      30.25F
CLINTON        SUNNY     39  21  48 MISG      30.32S
SEDALIA        SUNNY     40  22  48 VRB5      30.30F
WARSAW         NOT AVBL
CHILLICOTHE      N/A     41  21  44 CALM      30.28S
KIRKSVILLE     SUNNY     36  19  50 W7        30.25S WCI  30

$$

MOZ041-047>049-056>058-063>065-088>090-097-191800-
...EASTERN AND SOUTHERN MISSOURI...

CITY           SKY/WX    TMP DP  RH WIND       PRES   REMARKS
ST. LOUIS INTL MOSUNNY   38  18  44 NW14      30.25R WCI  30
SPIRIT OF STL  SUNNY     38  18  44 NW13      30.25R WCI  30
COLUMBIA       SUNNY     37  19  48 NW8       30.28S WCI  31
JEFFERSON CITY SUNNY     37  19  48 NW13      30.30S WCI  29
ROLLA          SUNNY     37  20  50 NW13      30.26S WCI  29
OSAGE BEACH    SUNNY     40  19  43 NW6       30.30F
SPRINGFIELD    SUNNY     43  25  49 N7        30.29S
BRANSON        SUNNY     45  23  42 NW13G21   30.31S
JOPLIN         SUNNY     45  27  49 N6        30.33S
WEST PLAINS    SUNNY     45  19  35 N14G22    30.27S

$$

IAZ060-094-KSZ022-034>040-054-083-096-NEZ052-066-093-191800-
...KANSAS...SOUTHEAST NEBRASKA AND IOWA...

CITY           SKY/WX    TMP DP  RH WIND       PRES   REMARKS
TOPEKA         SUNNY     46  28  49 S8        30.27F
MANHATTAN      SUNNY     46  29  51 SW8       30.26F
EMPORIA        SUNNY     49  29  46 S9        30.27F
CHANUTE        SUNNY     47  28  47 SE5       30.31F
WICHITA        MOSUNNY   50  27  40 S8        30.29F
OMAHA          MOSUNNY   41  25  53 S14       30.17F WCI  33
LINCOLN        SUNNY     44  27  51 S13       30.18F
FALLS CITY     SUNNY     44  26  49 S10       30.24F
LAMONI         SUNNY     37  22  54 SW7       30.22S WCI  32
DES MOINES     MOSUNNY   37  19  48 W8        30.19F WCI  31

$$





USA.gov is the U.S. government's official web portal to all federal, state and local government web resources and services.